Home > Time Zones > World Clock > Weather > Belgium > Spa > Past weeks

Flag for Belgium Weather past 2 weeks in Spa, Belgium

Now
32 °F

Snow flurries. Partly cloudy.


Feels Like: 22 °F
Forecast: 32 / 44 °F
Wind: 13 mph from Northwest

Location: Elsenborn

Current Time: Apr 1, 2015 at 8:02:03 AM

Latest Report: Apr 1, 2015 at 7:03 AM


Visibility: 2 mi

Pressure: 29.95 "Hg

Humidity: 87%

Dew point: 28 °F

Location of SpaLocation

Historic Weather in Spa — Graph

°F

Spa temperature yesterday

Maximum temperature yesterday: 46 °F (at 3:25 AM)
Minimum temperature yesterday: 34 °F (at 11:03 PM)
Average temperature yesterday: 41 °F

Past Weeks' High & Low Weather Summary

 TemperatureHumidityPressure
High61 °F (Mar 17, 1:25 PM)100% (Mar 17, 6:25 AM)30.33 "Hg (Mar 17, 6:25 AM)
Low23 °F (Mar 23, 5:25 AM)27% (Mar 17, 1:25 PM)29.39 "Hg (Mar 29, 7:25 PM)
Average39 °F87%29.93 "Hg
* Reported Mar 17 6:25 AM — Apr 1 7:03 AM, Spa, Weather by CustomWeather, © 2015

Note: Actual official high and low records may vary slightly from our data, if they occured in-between our weather recording intervals... More about our weather records

Advertising

Spa weather history for previous 24 hours

 ConditionsComfort  
Time TempWeatherWind HumidityBarometerVisibility
7:03 AM
Wed, Apr 1
32 °FSnow flurries. Partly cloudy.13 mph87%29.95 "Hg2 mi
6:25 AM34 °FSnow flurries. Partly cloudy.16 mph81%29.95 "HgN/A
5:53 AM34 °FSnow flurries. Partly cloudy.17 mph81%29.95 "HgN/A
5:25 AM34 °FPartly cloudy.17 mph75%29.92 "HgN/A
5:03 AM34 °FPartly cloudy.20 mph75%29.92 "HgN/A
4:47 AM34 °FPartly cloudy.14 mph81%29.92 "HgN/A
4:25 AM34 °FLight rain. Partly cloudy.18 mph81%29.92 "Hg5 mi
3:25 AM36 °FPartly cloudy.16 mph75%29.89 "HgN/A
2:25 AM36 °FPartly cloudy.16 mph75%29.89 "HgN/A
12:25 AM36 °FPartly cloudy.13 mph81%29.86 "HgN/A
11:25 PM
Tue, Mar 31
34 °FPassing clouds.17 mph93%29.86 "HgN/A
11:03 PM34 °FLight rain. Partly cloudy.20 mph93%29.86 "Hg1 mi
10:25 PM37 °FPassing clouds.16 mph81%29.83 "HgN/A
9:25 PM36 °FLight rain. Passing clouds.16 mph93%29.83 "HgN/A
9:03 PM36 °FRain. Broken clouds.18 mph93%29.83 "Hg1 mi
8:47 PM36 °FRain. Broken clouds.13 mph93%29.83 "Hg4 mi
8:25 PM36 °FHeavy rain. Dense fog.25 mph87%29.83 "Hg1 mi
7:25 PM43 °FScattered clouds.16 mph57%29.77 "HgN/A
6:25 PM43 °FBroken clouds.18 mph57%29.77 "HgN/A
5:25 PM45 °FPartly sunny.24 mph53%29.74 "HgN/A
4:25 PM43 °FScattered clouds.23 mph61%29.71 "HgN/A
3:25 PM43 °FBroken clouds.20 mph76%29.68 "HgN/A
3:03 PM43 °FBroken clouds.21 mph76%29.68 "HgN/A
2:25 PM43 °FBroken clouds.23 mph81%29.65 "HgN/A
2:03 PM41 °FLight rain. Broken clouds.24 mph87%29.62 "HgN/A
1:25 PM43 °FBroken clouds.22 mph81%29.59 "HgN/A
12:54 PM41 °FRain showers. Broken clouds.25 mph87%29.59 "Hg1 mi
12:25 PM41 °FSprinkles. Partly sunny.21 mph93%29.56 "Hg2 mi
11:53 AM43 °FSprinkles. Broken clouds.26 mph81%29.56 "Hg2 mi
11:25 AM41 °FRain showers. Broken clouds.24 mph93%29.53 "Hg2 mi
10:55 AM43 °FRain showers. Broken clouds.23 mph87%29.50 "Hg2 mi
10:25 AM43 °FSprinkles. Broken clouds.23 mph87%29.47 "Hg3 mi
9:47 AM45 °FDrizzle. Broken clouds.28 mph87%29.47 "HgN/A
9:25 AM45 °FDrizzle. Broken clouds.30 mph87%29.45 "Hg3 mi
8:25 AM45 °FDrizzle. Broken clouds.26 mph93%29.42 "Hg4 mi
Weather by CustomWeather, © 2015

See weather overviewHow to use our weather pages